Simultaneous Nadir Overpasses (SNOs) Predictions

Prediction of SNOs between LANDSAT-8 and NOAA-19 Satellite Orbit:

Table of predicted SNOs for the next 14.0 days since TLE Epoch: 7/14/2017
Index Date (LANDSAT-8) Time (LANDSAT-8) Lat,Lon (LANDSAT-8) SZA (LANDSAT-8 ) Date (NOAA-19) Time (NOAA-19) Lat,Lon (NOAA-19) SZA (NOAA-19 ) Distance(km) Time Diff (sec)
1 07/15/2017 00:33:03 -76.35, 1.07 125.10 07/15/2017 00:32:49 -76.36, 0.97 125.10 2.87 14
2 07/15/2017 01:22:38 75.90, 167.29 54.41 07/15/2017 01:23:44 75.85, 170.08 54.48 75.81 66
3 07/17/2017 06:06:48 76.33, 97.57 55.24 07/17/2017 06:06:42 76.33, 97.69 55.24 3.32 6
4 07/17/2017 06:56:21 -76.06, -95.66 125.06 07/17/2017 06:57:30 -76.02, -93.90 125.01 47.37 69
5 07/19/2017 11:40:34 -76.34,-165.84 124.36 07/19/2017 11:40:25 -76.37,-165.85 124.32 3.86 9
6 07/21/2017 17:14:18 76.35, -69.23 56.09 07/21/2017 17:14:18 76.34, -69.12 56.08 3.18 0
7 07/21/2017 18:03:56 -75.84, 96.82 124.47 07/21/2017 18:05:01 -75.82, 100.06 124.36 88.39 65
8 07/23/2017 22:48:04 -76.36, 27.37 123.45 07/23/2017 22:48:00 -76.35, 27.47 123.46 2.79 4
9 07/26/2017 04:21:48 76.37, 123.95 57.04 07/26/2017 04:21:54 76.37, 123.99 57.04 0.98 6
10 07/28/2017 09:05:58 76.77, 54.27 57.99 07/28/2017 09:04:51 76.81, 51.55 57.93 69.38 67
11 07/28/2017 09:55:34 -76.38,-139.45 122.45 07/28/2017 09:55:36 -76.38,-139.43 122.44 0.83 2




NCC Satellite Simultaneous Nadir Overpasses (SNOs) Prediction Service
